Regional Weather Roundup
Issued by NWS Goodland, KS

Home | Current Version | Previous Version | Graphics & Text | Print | Product List | Glossary On
Versions: 1 2 3 4 5 6 7 8 9 10 11 12 13 14 15 16 17 18 19 20 21 22 23 24 25 26 27 28 29 30 31 32 33 34 35 36 37 38 39 40 41 42 43 44 45 46 47 48 49 50
000
ASUS43 KGLD 262108
RWRGLD

GOODLAND FORECAST AREA HOURLY WEATHER ROUNDUP
NATIONAL WEATHER SERVICE GOODLAND KS
200 PM MST WED NOV 26 2014

...OFFICIAL OBSERVATIONS...

CITY           SKY/WX    TMP DP  RH WIND       PRES   REMARKS
GOODLAND KS    CLOUDY    36  25  64 NW7       30.26S
HILL CITY KS   CLOUDY    39  18  42 N22G28    30.29R
IMPERIAL NEB   LGT SNOW  32  24  72 N8        30.28R
MCCOOK NEB     CLOUDY    37  18  46 NW14      30.29R
AKRON CO       CLOUDY    30  24  78 CALM      30.22R
BURLINGTON CO  CLOUDY    37  25  61 N9        30.24S
LIMON CO       SUNNY     41  25  53 S10       30.16F
$$

...UNOFFICIAL OBSERVATIONS...

CITY           SKY/WX    TMP DP  RH WIND       PRES   REMARKS
COLBY KS       CLOUDY    37  27  65 NW7       30.29R
NORTON KS      CLOUDY    37  16  41 NW16      30.27S
TRIBUNE KS     SUNNY     43  27  52 N6        30.27S
TRENTON NEB      N/A     35  32  89 N10         N/A
YUMA CO          N/A     33  30  89 CALM        N/A
$$


USA.gov is the U.S. government's official web portal to all federal, state and local government web resources and services.